FW8306 Weather Reports


Display with metric or nautical units.
time (UTC)temp
F
wind
direction
speed
MPH
gust
MPH
rain 1hr
in
rain 24hr
in
rain mn
in
humidity
%
barometer
mb
20260901200100 61 0.0 0.0 0.00 0.01 0.01 89 1014.5
20260901194601 61 0.0 0.0 0.00 0.01 0.01 88 1014.4
20260901193127 62 0.0 0.0 0.00 0.01 0.01 88 1014.3
20260901191600 62 0.0 0.0 0.00 0.01 0.01 88 1014.2
20260901190106 62 0.0 0.0 0.00 0.01 0.01 88 1014.0
20260901184556 63 0.0 0.0 0.00 0.01 0.01 88 1013.9
20260901183058 63 0.0 0.0 0.00 0.01 0.01 87 1013.7
20260901181605 63 0.0 0.0 0.00 0.01 0.01 86 1013.6
20260901180103 64 0.0 0.0 0.00 0.01 0.01 85 1013.5
20260901174607 64 0.0 0.0 0.00 0.01 0.01 85 1013.5
20260901173102 64 0.0 0.0 0.00 0.01 0.01 85 1013.4
20260901171615 65 0.0 0.0 0.00 0.01 0.01 86 1013.2
20260901170109 65 0.0 0.0 0.00 0.01 0.01 86 1013.1
20260901164603 65 0.0 0.0 0.00 0.01 0.01 87 1013.1
20260901163056 65 0.0 0.0 0.00 0.01 0.01 88 1013.2
20260901161604 65 0.0 0.0 0.01 0.01 0.01 88 1013.2
20260901160106 64 0.0 0.0 0.01 0.01 0.01 88 1013.3
20260901154606 64 0.0 0.0 0.01 0.03 0.01 87 1013.2
20260901153103 65 0.0 0.0 0.00 0.03 0.00 84 1013.2
20260901151602 68 0.0 0.0 0.00 0.02 0.00 76 1013.0
20260901150109 69 0.0 0.0 0.00 0.02 0.00 71 1012.9
20260901144559 69 0.0 0.0 0.00 0.03 0.00 70 1012.8
20260901143112 69 0.0 0.0 0.00 0.03 0.00 71 1012.6
20260901141604 69 0.0 0.0 0.00 0.03 0.00 70 1012.7
20260901134627 69 0.0 0.0 0.00 0.03 0.00 72 1012.7
20260901133103 70 0.0 0.0 0.00 0.03 0.00 71 1012.6
20260901131606 70 0.0 0.0 0.00 0.03 0.00 74 1012.7
20260901130105 70 0.0 0.0 0.00 0.03 0.00 74 1012.5
20260901124601 69 0.0 0.0 0.00 0.03 0.00 76 1012.4
20260901123055 69 0.0 0.0 0.00 0.03 0.00 77 1012.5
20260901121609 69 0.0 0.0 0.00 0.03 0.00 77 1012.6
20260901120104 67 0.0 0.0 0.00 0.03 0.00 81 1012.7
20260901114602 67 0.0 0.0 0.00 0.03 0.00 80 1012.7
20260901113109 67 0.0 0.0 0.00 0.03 0.00 78 1012.5
20260901111604 67 0.0 0.0 0.00 0.03 0.00 78 1012.4
20260901110059 68 0.0 0.0 0.00 0.03 0.00 79 1012.3
20260901104601 67 0.0 0.0 0.00 0.03 0.00 78 1012.3
20260901103105 68 0.0 0.0 0.00 0.03 0.00 79 1012.2
20260901101604 67 0.0 0.0 0.00 0.03 0.00 80 1012.2
20260901100057 68 0.0 0.0 0.00 0.03 0.00 79 1012.0
20260901094600 66 0.0 0.0 0.00 0.03 0.00 83 1012.0
20260901093058 67 0.0 0.0 0.00 0.03 0.00 81 1011.8
20260901091602 67 0.0 0.0 0.00 0.03 0.00 79 1011.7
20260901090058 67 0.0 0.0 0.00 0.03 0.00 82 1011.5
20260901084559 66 0.0 0.0 0.00 0.03 0.00 83 1011.4
20260901083101 65 0.0 0.0 0.00 0.03 0.00 86 1011.4
20260901081603 64 0.0 0.0 0.00 0.03 0.00 86 1011.2
20260901080107 64 0.0 0.0 0.00 0.03 0.00 89 1011.0
20260901074615 63 0.0 0.0 0.00 0.18 0.00 91 1010.8
20260901073102 63 0.0 0.0 0.00 0.18 0.00 94 1010.5
20260901071604 61 0.0 0.0 0.00 0.18 0.00 96 1010.5
20260901070103 61 0.0 0.0 0.00 0.18 0.00 96 1010.5
20260901064559 61 0.0 0.0 0.00 0.18 0.00 97 1010.3
20260901063102 60 0.0 0.0 0.00 0.18 0.00 97 1010.2
20260901061557 59 0.0 0.0 0.00 0.18 0.00 97 1010.2
20260901054603 58 0.0 0.0 0.00 0.18 0.00 97 1010.0
20260901053058 58 0.0 0.0 0.00 0.18 0.00 96 1009.8
20260901051600 57 0.0 0.0 0.00 0.18 0.00 96 1009.9
20260901050054 57 0.0 0.0 0.00 0.18 0.00 96 1009.7
20260901044558 57 0.0 0.0 0.00 0.18 0.00 96 1009.5
20260901043059 56 0.0 0.0 0.00 0.18 0.00 96 1009.5
20260901041556 56 0.0 0.0 0.00 0.18 0.00 96 1009.3
20260901040115 56 0.0 0.0 0.00 0.18 0.00 96 1009.4
20260901034557 57 0.0 0.0 0.00 0.18 0.00 96 1009.3
20260901033056 57 0.0 0.0 0.00 0.18 0.00 96 1009.2
20260901031555 56 0.0 0.0 0.00 0.18 0.00 96 1009.3
20260901030101 55 0.0 0.0 0.00 0.18 0.00 95 1009.2
20260901024601 55 0.0 0.0 0.00 0.18 0.00 95 1009.0
20260901023100 56 0.0 0.0 0.00 0.18 0.00 95 1008.9
20260901021557 56 0.0 0.0 0.00 0.18 0.00 95 1009.0
20260901020057 56 0.0 0.0 0.00 0.18 0.00 95 1009.0
20260901014554 56 0.0 0.0 0.00 0.18 0.00 95 1008.9
20260901013110 57 0.0 0.0 0.00 0.18 0.00 95 1008.8
20260901011558 57 0.0 0.0 0.00 0.18 0.00 95 1008.8
20260901010108 57 0.0 0.0 0.00 0.18 0.00 95 1008.7
20260901004603 58 0.0 0.0 0.00 0.18 0.00 95 1008.7
20260901003058 58 0.0 0.0 0.00 0.18 0.00 95 1008.6
20260901001602 58 0.0 0.0 0.00 0.18 0.00 94 1008.4
20260901000100 58 0.0 0.0 0.00 0.18 0.00 94 1008.6
20260831234559 59 0.0 0.0 0.00 0.18 0.00 94 1008.5
20260831233104 59 0.0 0.0 0.00 0.18 0.00 94 1008.5
20260831231604 60 0.0 0.0 0.00 0.18 0.00 94 1008.5
20260831230057 60 0.0 0.0 0.00 0.18 0.00 94 1008.5
20260831224557 60 0.0 0.0 0.00 0.18 0.00 94 1008.5
20260831223054 60 0.0 0.0 0.00 0.18 0.00 94 1008.4
20260831221624 60 0.0 0.0 0.00 0.18 0.00 94 1008.5
20260831220057 60 0.0 0.0 0.00 0.18 0.00 94 1008.5
20260831214558 60 0.0 0.0 0.00 0.18 0.18 94 1008.5
20260831213055 60 0.0 0.0 0.00 0.18 0.18 93 1008.4
20260831211559 60 0.0 0.0 0.00 0.18 0.18 93 1008.4
20260831210100 60 0.0 0.0 0.00 0.18 0.18 93 1008.2
20260831204603 60 0.0 0.0 0.00 0.18 0.18 93 1008.0
20260831203125 61 0.0 0.0 0.00 0.18 0.18 93 1007.9
20260831201607 60 0.0 0.0 0.00 0.18 0.18 93 1007.9